Temp
9 10 10 9 9 9 10 10 10 10 10 10 10 10 10 10 10 10 11 10 10 10 10 9 9 8 9 9 9 9 8 9 10 10 13 13 12 12 12 12 12 14 14 14 14
8 9 9 9 10 10 10 9 9 9 9 10 10 10 10 10 10 10 10 11 11 10 11 10 9 8 8 9 8 9 9 9 10 11 12 12 11 12 12 12 12 13 14 14 13
8 8 8 8 8 9 9 9 9 10 10 10 10 10 10 10 10 10 11 10 10 10 10 10 9 7 7 8 8 9 10 10 10 11 11 11 11 11 11 12 11 12 12 11 11
8 8 8 8 8 8 8 8 8 8 8 9 9 10 11 11 9 10 9 8 9 8 9 9 9 8 8 8 9 8 8 9 10 10 10 11 11 11 10 12 11 11 11 11 10
7 7 8 8 8 8 8 8 8 8 8 8 9 9 9 10 12 8 10 10 11 10 9 9 9 8 8 8 8 8 9 9 9 9 9 10 10 10 11 11 11 10 11 11 11
8 8 8 8 8 8 8 8 8 7 7 7 7 8 8 10 10 9 9 8 8 9 9 9 9 8 8 7 8 8 8 8 8 8 8 8 10 9 10 10 10 11 11 10 11
8 8 8 8 8 8 8 8 8 8 7 7 7 6 8 11 8 6 8 8 7 7 8 8 7 7 7 7 7 7 7 7 8 8 8 8 10 10 10 10 10 10 10 11 11
8 8 8 8 8 8 8 8 8 7 8 7 7 6 10 10 9 8 7 7 7 7 7 6 5 4 4 5 5 6 6 6 7 7 9 8 9 10 9 10 10 10 10 11 11
8 8 8 8 8 8 8 7 6 7 7 7 6 6 9 8 7 9 9 8 7 6 6 5 4 4 4 3 4 5 5 6 6 7 8 8 8 10 10 9 10 10 10 11 11
8 8 8 8 8 7 8 6 6 6 5 5 5 5 5 5 5 6 6 5 6 6 4 3 3 3 3 2 2 3 4 5 6 8 7 8 8 9 9 9 9 10 10 10 10
8 8 8 8 7 6 7 6 4 4 4 3 2 4 3 4 5 4 5 5 5 4 4 2 3 4 4 4 3 4 5 6 6 7 7 8 8 8 9 9 9 10 10 10 10
7 7 7 7 7 5 4 2 0 0 3 3 1 1 3 3 3 3 2 2 2 5 3 2 3 5 4 4 3 3 4 5 5 6 7 7 8 8 9 9 10 10 10 10 10
6 5 5 5 5 3 1 -1 -2 -2 -3 1 1 3 3 1 3 2 1 1 1 1 2 3 5 3 3 3 3 3 4 4 5 6 7 7 7 8 9 9 9 10 10 10 11
4 3 3 2 2 1 -2 -3 -3 -4 -5 0 2 0 0 1 0 0 0 1 0 -0 1 1 4 3 4 3 3 3 4 4 5 6 5 7 5 8 9 10 10 10 10 11 11
1 1 0 -2 0 -0 -3 -4 -4 -5 -6 0 -0 -1 -1 -1 -1 0 0 1 1 -0 0 1 1 2 2 4 3 4 4 4 5 5 5 6 6 7 9 10 10 10 11 10 10
-0 -1 -2 -1 -1 -1 -3 -4 -6 -5 -4 -1 -1 -1 -1 -1 -0 -0 0 0 -0 0 0 2 2 2 4 3 3 4 4 5 5 5 4 5 6 8 8 9 10 10 10 10 11
-2 -2 -3 -3 -3 -2 -4 -5 -6 -5 -3 -2 -2 -2 -1 -1 -0 -1 -1 -1 -1 -0 0 1 1 2 3 3 3 4 4 2 2 2 3 6 6 7 9 9 10 10 10 10 10
-2 -3 -4 -4 -5 -5 -5 -6 -7 -4 -4 -2 -3 -3 -3 -2 -2 -1 -1 -1 -2 -2 -2 -0 1 2 3 3 4 3 4 3 1 1 3 7 5 8 9 9 9 9 9 9 9
-3 -4 -4 -5 -7 -6 -6 -6 -5 -4 -4 -4 -4 -3 -3 -2 -3 -2 -2 -1 -1 -0 -2 -0 1 3 3 3 4 3 3 4 5 4 4 6 7 8 9 9 9 9 9 8 8
-4 -5 -5 -5 -5 -6 -6 -6 -5 -5 -5 -4 -5 -4 -4 -3 -4 -3 -2 -1 -1 -1 -1 -1 -0 2 4 3 3 4 4 4 4 2 2 3 7 8 8 8 8 8 8 8 7
-4 -5 -6 -7 -6 -6 -7 -6 -6 -5 -5 -5 -4 -4 -4 -4 -4 -4 -3 -1 -1 -1 -1 -1 -1 2 3 2 3 3 4 4 5 6 1 2 5 7 8 8 8 8 8 7 7
-5 -6 -6 -7 -7 -7 -8 -7 -6 -5 -5 -5 -4 -4 -4 -4 -4 -4 -3 -2 -1 -1 -1 -0 -1 -0 1 2 3 4 3 4 5 2 5 7 3 6 7 7 7 8 7 7 6
-6 -6 -7 -7 -8 -8 -7 -6 -6 -6 -5 -5 -4 -4 -4 -4 -4 -3 -2 -1 -1 -1 -1 -2 -1 -0 -0 1 2 2 4 4 4 6 6 4 2 5 5 6 6 6 6 6 5
-8 -8 -8 -8 -8 -9 -8 -7 -6 -6 -5 -5 -4 -4 -4 -4 -4 -4 -3 -2 -1 -1 -2 -2 -2 0 1 2 2 2 3 4 4 5 6 6 5 3 5 6 5 5 5 3 3
-10 -10 -10 -9 -8 -8 -8 -7 -7 -7 -5 -4 -4 -5 -4 -4 -5 -3 -3 -2 -2 -1 -2 -2 -2 -0 1 3 3 3 3 4 4 5 7 6 7 6 7 6 6 5 4 2 2
-10 -11 -10 -10 -9 -9 -8 -8 -8 -7 -7 -6 -5 -5 -4 -5 -5 -4 -4 -3 -2 -2 -1 -2 -1 -1 0 3 2 2 3 4 4 5 7 7 7 6 5 4 5 4 3 3 2
-11 -11 -11 -10 -9 -9 -9 -9 -8 -7 -5 -5 -5 -5 -5 -5 -4 -5 -4 -3 -3 -2 -2 -2 -1 0 0 3 3 1 2 3 4 6 7 6 7 6 4 4 4 4 3 2 3
Height
3131 3128 3125 3122 3119 3116 3113 3110 3108 3106 3104 3102 3100 3098 3095 3095 3096 3095 3097 3098 3098 3094 3097 3099 3102 3104 3105 3107 3109 3108 3105 3099 3105 3113 3119 3121 3123 3126 3128 3126 3125 3125 3127 3132 3131
3129 3127 3124 3121 3118 3115 3113 3110 3107 3104 3101 3098 3096 3094 3092 3090 3089 3091 3090 3091 3091 3089 3093 3095 3097 3097 3099 3102 3101 3101 3095 3094 3104 3111 3116 3116 3120 3123 3123 3123 3124 3124 3126 3127 3126
3125 3123 3121 3118 3115 3113 3110 3107 3104 3101 3098 3095 3092 3089 3086 3084 3085 3086 3085 3084 3083 3084 3085 3088 3090 3090 3092 3094 3093 3092 3083 3093 3099 3108 3113 3113 3114 3118 3117 3118 3122 3123 3124 3123 3128
3123 3120 3116 3113 3111 3108 3105 3103 3099 3096 3093 3090 3086 3082 3079 3078 3083 3083 3079 3077 3079 3080 3079 3081 3082 3080 3084 3084 3089 3084 3082 3091 3099 3104 3106 3107 3110 3109 3111 3115 3117 3122 3124 3124 3123
3117 3114 3111 3108 3105 3102 3099 3096 3093 3089 3085 3081 3077 3075 3073 3069 3075 3078 3070 3072 3073 3076 3076 3074 3075 3076 3077 3078 3083 3076 3082 3089 3094 3098 3100 3103 3099 3103 3104 3110 3113 3115 3120 3122 3123
3111 3108 3104 3100 3096 3094 3091 3089 3085 3081 3076 3073 3069 3066 3060 3055 3069 3069 3065 3062 3064 3067 3068 3069 3072 3074 3070 3072 3076 3074 3080 3084 3087 3090 3093 3095 3094 3096 3099 3105 3107 3110 3114 3117 3119
3106 3102 3098 3094 3089 3085 3081 3079 3076 3071 3065 3061 3060 3053 3044 3045 3059 3058 3058 3055 3056 3060 3061 3065 3067 3065 3066 3067 3071 3072 3073 3076 3076 3082 3085 3093 3083 3083 3095 3099 3101 3104 3108 3112 3115
3102 3097 3093 3088 3082 3077 3073 3071 3068 3060 3055 3051 3048 3042 3023 3035 3046 3047 3046 3042 3044 3050 3056 3057 3058 3057 3057 3062 3065 3065 3067 3064 3068 3077 3081 3086 3066 3082 3090 3093 3094 3098 3102 3106 3110
3096 3091 3087 3082 3075 3068 3062 3060 3058 3048 3044 3040 3034 3031 3017 3027 3029 3031 3030 3029 3035 3038 3045 3049 3047 3046 3052 3054 3058 3057 3054 3056 3064 3070 3075 3074 3066 3077 3083 3086 3089 3093 3096 3100 3103
3090 3084 3077 3072 3067 3059 3050 3047 3042 3034 3029 3025 3021 3021 3017 3020 3023 3025 3021 3023 3023 3028 3035 3033 3034 3034 3035 3040 3029 3044 3049 3054 3057 3065 3069 3068 3064 3072 3077 3079 3083 3087 3090 3094 3097
3082 3076 3068 3061 3057 3049 3041 3035 3031 3019 3013 3014 3012 3003 3007 3015 3015 3016 3015 3014 3014 3016 3015 3020 3021 3005 3018 3026 3035 3044 3047 3049 3054 3062 3064 3063 3063 3067 3072 3073 3075 3079 3082 3085 3091
3078 3070 3060 3051 3047 3041 3035 3028 3016 3009 2992 2996 3001 2998 2995 3004 2984 2995 3005 3004 3002 2998 3009 3015 2996 3007 3018 3026 3031 3037 3041 3043 3051 3057 3058 3060 3059 3063 3066 3066 3069 3073 3076 3079 3084
3072 3064 3052 3041 3034 3031 3026 3016 3011 3005 2995 2979 2985 2981 2981 2978 2975 2976 2987 2987 2990 2994 2990 2991 2995 3007 3012 3017 3022 3027 3031 3039 3048 3055 3055 3056 3052 3055 3058 3059 3061 3065 3069 3072 3076
3062 3054 3041 3030 3024 3020 3016 3007 3003 3001 2992 2980 2978 2978 2976 2970 2972 2974 2974 2977 2981 2982 2993 2993 2998 3002 3002 3006 3015 3021 3029 3039 3046 3051 3050 3055 3049 3050 3052 3052 3055 3058 3063 3066 3071
3053 3045 3033 3023 3011 3010 3005 3002 3000 2999 2997 2979 2977 2975 2973 2973 2972 2969 2969 2966 2965 2976 2987 2978 2989 2996 3000 2998 3013 3014 3027 3035 3041 3044 3048 3045 3050 3045 3047 3047 3049 3052 3057 3061 3066
3046 3038 3024 3017 3009 3003 2999 2996 2997 3001 2988 2976 2974 2969 2970 2970 2968 2966 2963 2960 2960 2970 2977 2978 2987 2993 2990 3002 3008 3016 3026 3032 3037 3042 3040 3034 3044 3043 3044 3047 3048 3049 3052 3057 3061
3039 3030 3017 3008 3001 2994 2992 2993 2996 2990 2982 2975 2972 2969 2966 2966 2964 2962 2961 2958 2962 2966 2970 2973 2977 2986 2991 2999 3005 3012 3018 3026 3035 3035 3026 3029 3037 3038 3042 3044 3046 3046 3050 3054 3059
3030 3021 3012 3002 2997 2991 2989 2990 2986 2978 2976 2973 2971 2966 2964 2961 2961 2960 2957 2958 2958 2960 2963 2965 2971 2973 2979 2983 2993 3001 3008 3012 3021 3025 3024 3027 3027 3030 3039 3041 3042 3044 3047 3052 3055
3023 3015 3006 3000 2996 2991 2988 2986 2979 2976 2975 2971 2968 2962 2959 2960 2960 2958 2955 2955 2955 2955 2959 2957 2960 2963 2975 2981 2991 2995 3001 3007 3014 3016 3017 3019 3024 3028 3033 3036 3039 3041 3044 3048 3052
3016 3010 3000 2993 2990 2988 2985 2979 2976 2975 2972 2969 2966 2962 2957 2956 2956 2955 2951 2951 2952 2950 2949 2953 2955 2961 2966 2978 2984 2989 2997 3007 3011 3015 3017 3014 3015 3019 3027 3032 3035 3038 3042 3045 3049
3012 3006 2998 2992 2989 2987 2982 2978 2971 2968 2968 2966 2961 2957 2953 2951 2950 2947 2946 2946 2948 2951 2948 2947 2950 2955 2963 2966 2972 2982 2988 2996 3003 3005 3008 3016 3014 3016 3022 3028 3031 3034 3038 3043 3049
3007 3002 2996 2992 2990 2984 2980 2976 2970 2966 2965 2961 2956 2951 2949 2948 2945 2944 2941 2942 2943 2944 2945 2946 2942 2944 2952 2961 2968 2976 2983 2989 2992 2998 3002 3003 3011 3013 3019 3024 3027 3029 3034 3040 3047
3004 2998 2995 2987 2985 2981 2977 2973 2969 2966 2962 2959 2954 2950 2949 2948 2945 2941 2939 2939 2941 2942 2942 2944 2937 2944 2948 2959 2964 2967 2977 2982 2989 2995 2996 3002 3009 3011 3017 3021 3024 3028 3032 3036 3042
2999 2994 2991 2987 2986 2982 2974 2971 2967 2965 2960 2954 2953 2950 2948 2946 2944 2941 2938 2938 2939 2940 2940 2942 2938 2939 2942 2944 2951 2963 2971 2978 2986 2991 2995 2997 3003 3008 3014 3020 3024 3027 3030 3034 3040
3000 2997 2992 2986 2981 2979 2976 2971 2967 2962 2957 2952 2951 2949 2944 2943 2940 2937 2936 2936 2936 2937 2937 2938 2937 2937 2942 2946 2952 2959 2968 2975 2980 2989 2991 2996 2999 3004 3011 3016 3020 3024 3029 3034 3039
3001 2996 2989 2985 2982 2978 2974 2970 2965 2961 2958 2952 2949 2946 2944 2941 2939 2935 2935 2934 2934 2932 2932 2934 2933 2934 2939 2947 2952 2959 2962 2971 2979 2984 2989 2993 2998 3004 3009 3014 3018 3021 3026 3032 3035
2999 2995 2991 2985 2981 2978 2974 2969 2964 2961 2957 2954 2948 2943 2937 2934 2930 2929 2928 2929 2930 2931 2931 2929 2930 2930 2935 2942 2952 2959 2959 2969 2975 2978 2984 2988 2996 3001 3006 3012 3016 3021 3026 3031 3036
Wind_Speed
16 17 18 19 20 21 23 24 25 25 26 27 28 28 29 28 26 26 20 19 18 25 25 28 27 26 28 29 30 31 38 44 41 34 27 20 22 18 11 8 7 16 19 15 23
18 19 19 20 20 22 23 24 25 27 28 30 31 32 34 34 32 26 26 22 23 26 23 25 28 30 31 29 33 36 45 46 39 33 26 24 22 22 15 7 5 14 20 18 20
21 20 21 22 23 25 26 26 27 28 30 31 32 34 36 37 35 30 28 28 25 22 24 25 29 34 34 32 38 39 49 43 41 32 25 26 26 23 16 12 5 7 12 18 21
22 22 24 25 26 28 29 30 31 33 34 35 35 36 36 37 28 15 17 16 13 15 20 25 31 39 39 40 36 43 45 40 36 32 29 28 26 32 24 19 11 9 11 14 14
26 26 26 26 27 28 30 32 33 35 37 39 41 41 42 42 31 27 39 36 33 25 23 21 31 35 39 40 37 44 41 37 34 33 32 28 34 34 33 23 18 14 14 19 21
30 31 32 33 33 33 33 32 33 35 38 40 41 43 48 52 37 26 34 35 30 28 26 27 25 29 38 38 37 41 36 35 37 34 32 34 36 34 38 26 23 24 21 18 19
33 35 36 37 38 39 39 39 39 40 41 43 41 46 53 50 41 39 35 34 29 21 24 23 23 29 33 35 36 38 38 36 36 32 34 24 41 46 35 30 26 28 23 26 25
35 35 36 38 39 41 41 40 40 43 45 45 45 49 61 53 42 39 38 43 42 38 30 26 26 27 34 32 34 31 38 41 36 24 29 31 52 41 32 29 29 24 27 25 27
38 39 40 40 43 45 46 43 39 45 46 47 49 49 60 47 29 27 34 42 41 38 29 28 32 34 33 36 33 38 32 39 39 32 30 40 42 36 32 28 27 28 23 20 23
38 40 42 43 45 48 53 50 47 49 50 48 49 46 38 23 17 21 23 21 26 41 35 37 38 41 43 44 43 34 34 34 27 35 33 39 40 33 29 28 28 28 30 24 22
43 45 47 49 47 50 53 54 50 50 55 46 39 48 40 32 39 30 28 30 31 35 46 45 45 59 53 51 48 21 42 30 31 26 28 36 34 31 30 31 30 27 24 32 28
46 48 52 55 53 53 52 46 46 50 61 57 51 51 52 35 52 45 36 32 32 45 43 44 60 53 44 43 47 47 32 36 25 18 26 29 34 32 34 34 33 28 24 22 26
48 49 52 55 54 51 43 39 35 38 46 62 54 47 18 21 32 35 42 42 36 42 52 57 44 49 44 41 45 51 47 35 22 21 30 24 31 28 27 31 30 30 25 22 24
48 46 49 52 52 46 30 33 32 27 23 46 18 8 13 5 5 8 7 34 50 42 49 49 51 12 50 48 42 43 44 33 25 24 17 17 8 26 23 24 23 26 28 26 24
43 42 46 43 51 45 36 26 22 14 6 12 0 4 11 13 10 7 17 15 40 38 40 50 41 44 34 52 41 42 26 31 25 30 23 31 11 21 17 19 19 20 27 28 31
40 40 44 47 46 40 33 25 8 6 9 8 6 13 14 12 15 16 13 7 15 36 28 43 38 33 43 24 42 33 22 24 23 23 14 31 20 12 17 23 21 22 21 28 26
42 41 42 45 40 34 27 10 9 10 5 8 8 25 29 27 16 13 6 5 12 24 37 35 42 28 23 41 23 32 27 5 7 8 11 14 16 21 14 17 24 24 17 17 24
43 40 37 31 30 28 20 12 9 11 20 20 24 28 29 10 5 9 16 11 14 17 10 27 19 45 30 37 38 32 32 10 6 5 5 9 10 10 20 18 20 13 12 21 23
42 38 34 25 24 23 9 13 7 7 8 15 27 14 6 9 14 11 13 15 15 15 14 10 27 27 43 33 36 31 34 40 7 2 4 13 11 13 23 19 16 14 13 19 20
44 37 28 28 25 17 19 16 14 12 19 23 23 13 22 24 17 11 6 9 8 6 16 19 9 29 29 41 35 25 31 25 25 7 4 3 17 13 20 20 22 22 19 22 27
42 35 28 22 22 17 16 21 21 16 21 16 21 21 23 21 17 21 11 11 12 4 10 7 16 21 28 32 38 32 35 23 27 18 7 4 5 14 18 16 16 27 24 27 31
41 35 25 21 12 17 21 24 19 15 22 22 17 19 19 8 19 12 13 17 8 6 9 13 22 5 29 38 36 39 31 36 19 7 11 16 5 15 14 14 14 20 26 25 30
38 36 27 24 17 23 21 21 20 25 19 24 21 11 11 17 9 8 10 11 13 13 7 10 7 14 9 22 27 34 29 36 41 22 16 10 6 17 16 16 17 18 31 35 35
33 25 31 11 23 20 28 24 25 23 26 15 14 12 14 15 10 13 12 7 10 15 13 11 12 15 9 13 29 30 35 28 27 23 21 24 20 22 19 17 19 25 35 34 29
27 17 22 29 22 25 24 20 28 33 28 14 12 21 21 17 21 15 10 17 13 11 14 11 12 18 18 13 27 28 30 38 30 28 24 21 25 25 17 18 15 20 30 29 28
25 25 29 27 24 23 25 26 30 32 22 29 31 25 26 22 18 24 21 4 11 9 16 16 14 19 20 27 19 18 21 32 28 27 25 24 23 22 25 22 18 20 25 27 30
23 23 24 26 28 26 28 28 33 25 22 21 24 32 36 33 19 25 22 17 11 9 16 14 15 23 10 26 29 20 20 26 33 35 32 31 25 27 27 23 21 21 30 26 24
Wind_Direction
318 314 312 310 308 306 306 304 300 297 294 289 285 283 279 275 273 274 279 270 263 256 246 236 226 232 235 235 234 233 232 237 239 243 249 247 245 224 255 288 280 249 233 223 216
312 309 305 300 295 294 293 291 290 290 289 288 287 284 281 278 277 275 274 270 259 254 256 248 234 229 232 234 233 231 239 241 245 247 247 248 241 215 236 213 286 253 227 209 216
312 307 303 299 295 292 289 285 283 281 280 279 278 278 279 281 282 284 277 265 256 253 250 245 232 228 230 228 231 237 242 246 250 253 253 253 241 230 234 197 199 189 216 228 227
319 314 310 305 299 294 290 289 286 285 281 278 273 270 269 271 277 285 272 251 248 265 246 240 233 229 231 230 230 238 243 248 254 253 252 248 243 228 227 207 199 214 203 201 219
328 324 319 314 308 302 297 293 290 287 284 281 280 278 275 266 262 267 269 266 264 263 255 243 239 237 236 235 235 241 246 251 252 251 248 244 243 238 226 211 209 218 224 207 212
330 327 323 319 315 310 306 300 296 291 286 282 279 276 273 268 280 264 262 266 262 252 245 247 243 244 245 243 239 247 250 255 253 249 249 244 238 241 227 217 225 219 227 235 227
331 329 326 323 319 316 312 309 306 300 292 289 288 283 276 274 276 268 262 263 256 248 244 243 238 238 245 244 245 248 251 251 249 244 242 242 240 233 233 226 232 232 239 233 243
331 328 324 321 317 314 310 307 306 298 293 292 287 283 281 287 279 272 262 253 256 257 254 245 231 238 238 238 241 246 244 243 237 228 226 218 243 229 234 228 229 235 239 242 238
331 328 326 322 319 314 309 308 303 293 290 287 282 280 283 288 289 276 261 251 243 245 240 235 229 226 226 229 235 232 239 239 242 221 215 216 246 235 240 239 243 239 242 244 241
327 326 323 321 318 313 310 308 304 294 288 281 277 278 280 287 269 250 250 252 240 228 216 215 217 222 219 214 221 219 230 233 230 222 218 219 245 242 244 248 249 241 242 241 235
327 324 320 316 313 308 305 304 299 292 288 283 270 274 267 269 277 271 250 246 238 222 213 209 210 219 218 218 221 227 226 234 240 233 232 231 245 247 244 245 244 242 244 232 231
322 320 316 312 309 305 306 307 299 293 289 286 283 284 294 285 259 248 233 236 226 216 208 208 222 225 224 220 223 222 227 231 241 223 237 242 247 250 247 251 248 237 243 242 227
318 315 310 306 303 306 310 301 293 290 289 292 303 304 297 278 259 263 232 224 225 219 208 209 231 221 220 218 221 223 225 230 238 238 239 250 257 252 245 252 241 237 240 228 219
321 317 310 305 307 308 313 297 295 295 299 300 300 343 4 357 294 341 7 238 226 224 217 220 212 217 217 217 215 223 225 233 237 243 251 240 272 260 264 257 235 232 242 215 215
325 319 312 316 308 316 304 300 292 284 295 293 67 24 17 6 316 292 316 290 230 221 212 221 224 213 215 222 213 224 223 226 232 238 257 247 260 269 270 239 249 225 212 220 223
327 323 316 310 311 308 299 292 263 229 249 269 192 301 303 282 299 304 309 275 248 205 221 234 228 230 221 220 222 221 217 222 227 237 243 242 222 235 249 204 199 197 208 217 229
329 326 319 316 314 315 311 291 198 226 266 281 272 306 307 314 312 306 298 198 184 199 216 223 227 220 226 217 211 206 199 175 204 204 235 222 217 226 244 216 210 216 221 203 206
333 332 327 318 311 316 315 199 211 249 252 289 304 300 304 315 313 279 301 313 242 247 239 209 213 217 209 216 204 205 194 168 179 171 173 199 207 196 227 226 226 228 224 204 207
337 338 330 318 299 308 290 207 258 288 291 287 299 315 310 226 322 300 302 282 277 246 220 210 224 222 206 206 205 205 198 210 258 258 143 192 192 188 194 211 225 230 217 209 215
336 341 328 326 340 303 286 237 278 276 287 287 290 270 271 291 287 294 253 262 241 313 210 236 228 213 213 210 214 206 210 199 225 188 183 247 176 181 208 223 235 237 232 207 204
334 342 333 328 333 358 5 333 329 280 285 293 296 284 279 302 281 267 239 228 213 240 307 252 220 205 198 203 204 202 214 209 216 222 172 141 209 205 219 227 238 228 229 216 217
332 338 332 334 330 333 348 339 344 343 345 311 297 291 291 296 313 300 245 232 219 262 294 294 200 199 203 207 208 208 213 216 216 187 212 193 170 184 189 205 227 231 212 212 214
332 332 338 347 359 353 337 348 344 340 339 325 312 320 324 329 306 281 302 251 227 247 259 268 190 169 135 172 197 201 202 207 217 203 204 175 170 185 182 200 210 222 204 198 200
337 341 338 356 346 349 350 351 348 349 344 326 295 312 304 316 324 307 266 265 237 235 240 284 270 192 187 186 184 192 207 201 203 206 205 201 177 179 178 190 206 205 198 191 187
346 336 333 327 349 343 352 354 342 344 349 0 357 342 318 317 304 316 282 253 257 251 250 263 256 209 198 170 182 187 200 206 211 206 196 190 198 197 199 205 207 214 209 192 183
346 341 330 330 339 337 355 343 343 341 342 343 330 328 330 309 290 295 287 234 241 233 235 270 246 216 187 198 172 161 169 200 214 224 204 195 180 183 181 191 200 192 200 205 188
340 332 332 326 338 339 338 340 336 345 339 343 342 331 333 324 286 284 262 244 231 257 245 228 242 179 142 174 174 184 159 187 212 204 197 186 194 185 186 193 201 203 201 195 218